TimeAKDT,TemperatureF,Dew PointF,Humidity,Sea Level PressureIn,VisibilityMPH,Wind Direction,Wind SpeedMPH,Gust SpeedMPH,PrecipitationIn,Events,Conditions,WindDirDegrees,DateUTC
12:16 AM,51.8,48.2,88,29.50,10.0,SW,4.6,-,N/A,,Overcast,230,2013-09-08 08:16:00
12:36 AM,51.8,48.2,88,29.50,10.0,WSW,3.5,-,N/A,,Overcast,250,2013-09-08 08:36:00
12:56 AM,51.8,48.2,88,29.49,10.0,WSW,3.5,-,N/A,,Overcast,240,2013-09-08 08:56:00
1:16 AM,51.8,48.2,88,29.49,10.0,SW,3.5,-,N/A,,Overcast,230,2013-09-08 09:16:00
1:36 AM,51.8,48.2,88,29.49,10.0,SW,4.6,-,N/A,,Overcast,230,2013-09-08 09:36:00
1:56 AM,51.8,48.2,88,29.48,10.0,Calm,Calm,-,N/A,,Overcast,0,2013-09-08 09:56:00
2:16 AM,51.8,48.2,88,29.48,10.0,SW,4.6,-,N/A,,Overcast,230,2013-09-08 10:16:00
2:36 AM,51.8,48.2,88,29.48,10.0,WSW,4.6,-,N/A,,Overcast,240,2013-09-08 10:36:00
2:56 AM,51.8,48.2,88,29.48,10.0,WSW,8.1,-,N/A,,Overcast,240,2013-09-08 10:56:00
3:16 AM,51.8,48.2,88,29.48,10.0,SW,6.9,-,N/A,,Overcast,230,2013-09-08 11:16:00
3:36 AM,51.8,48.2,88,29.48,10.0,SW,4.6,-,N/A,,Overcast,220,2013-09-08 11:36:00
3:56 AM,50.0,46.4,87,29.48,10.0,SSW,3.5,-,N/A,,Overcast,210,2013-09-08 11:56:00
4:16 AM,48.2,46.4,93,29.49,10.0,SSW,3.5,-,N/A,,Overcast,200,2013-09-08 12:16:00
4:36 AM,48.2,44.6,87,29.49,10.0,SSW,4.6,-,N/A,,Overcast,210,2013-09-08 12:36:00
4:56 AM,48.2,44.6,87,29.49,10.0,SW,3.5,-,N/A,,Overcast,220,2013-09-08 12:56:00
5:16 AM,48.2,44.6,87,29.49,10.0,South,4.6,-,N/A,,Overcast,190,2013-09-08 13:16:00
5:36 AM,48.2,44.6,87,29.50,10.0,SSW,4.6,-,N/A,,Mostly Cloudy,210,2013-09-08 13:36:00
5:56 AM,48.2,44.6,87,29.50,10.0,SSW,4.6,-,N/A,,Unknown,200,2013-09-08 13:56:00
6:16 AM,48.2,44.6,87,29.50,10.0,South,5.8,-,N/A,,Unknown,190,2013-09-08 14:16:00
6:36 AM,48.2,44.6,87,29.51,10.0,South,5.8,-,N/A,,Overcast,180,2013-09-08 14:36:00
6:56 AM,48.2,44.6,87,29.51,10.0,South,6.9,-,N/A,,Overcast,180,2013-09-08 14:56:00
7:16 AM,48.2,44.6,87,29.51,10.0,South,5.8,-,N/A,,Mostly Cloudy,190,2013-09-08 15:16:00
7:36 AM,48.2,44.6,87,29.52,10.0,South,6.9,-,N/A,,Clear,180,2013-09-08 15:36:00
7:56 AM,50.0,44.6,82,29.52,10.0,SSW,6.9,16.1,N/A,,Clear,200,2013-09-08 15:56:00
8:16 AM,50.0,44.6,82,29.53,10.0,South,6.9,-,N/A,,Clear,190,2013-09-08 16:16:00
8:36 AM,51.8,44.6,76,29.54,10.0,SSW,9.2,-,N/A,,Mostly Cloudy,200,2013-09-08 16:36:00
8:56 AM,51.8,44.6,76,29.55,10.0,South,6.9,-,N/A,,Overcast,190,2013-09-08 16:56:00
9:16 AM,51.8,46.4,82,29.55,10.0,SSW,9.2,-,N/A,,Overcast,200,2013-09-08 17:16:00
9:36 AM,51.8,46.4,82,29.56,10.0,South,9.2,-,N/A,,Overcast,190,2013-09-08 17:36:00
9:56 AM,53.6,46.4,77,29.57,10.0,South,10.4,17.3,N/A,,Overcast,190,2013-09-08 17:56:00
10:16 AM,53.6,46.4,77,29.58,10.0,South,12.7,17.3,N/A,,Overcast,180,2013-09-08 18:16:00
10:36 AM,53.6,46.4,77,29.59,10.0,South,9.2,20.7,N/A,,Overcast,190,2013-09-08 18:36:00
10:56 AM,53.6,46.4,77,29.60,10.0,South,10.4,18.4,N/A,,Mostly Cloudy,180,2013-09-08 18:56:00
11:16 AM,53.6,46.4,77,29.61,10.0,South,15.0,18.4,N/A,,Mostly Cloudy,190,2013-09-08 19:16:00
11:36 AM,55.4,46.4,72,29.62,10.0,SSW,15.0,25.3,N/A,,Overcast,200,2013-09-08 19:36:00
11:56 AM,55.4,46.4,72,29.63,10.0,SSW,12.7,23.0,N/A,,Overcast,200,2013-09-08 19:56:00
12:16 PM,55.4,44.6,67,29.64,10.0,SSW,12.7,21.9,N/A,,Overcast,200,2013-09-08 20:16:00
12:36 PM,57.2,44.6,63,29.65,10.0,South,11.5,23.0,N/A,,Mostly Cloudy,180,2013-09-08 20:36:00
12:56 PM,55.4,44.6,67,29.66,10.0,SW,8.1,20.7,N/A,,Mostly Cloudy,220,2013-09-08 20:56:00
1:16 PM,57.2,44.6,63,29.67,10.0,South,9.2,-,N/A,,Mostly Cloudy,190,2013-09-08 21:16:00
1:36 PM,57.2,44.6,63,29.68,10.0,South,10.4,18.4,N/A,,Mostly Cloudy,190,2013-09-08 21:36:00
1:56 PM,57.2,44.6,63,29.68,10.0,SW,11.5,17.3,N/A,,Mostly Cloudy,220,2013-09-08 21:56:00
2:16 PM,57.2,42.8,59,29.70,10.0,WSW,9.2,17.3,N/A,,Mostly Cloudy,240,2013-09-08 22:16:00
2:36 PM,57.2,44.6,63,29.70,10.0,SW,10.4,16.1,N/A,,Partly Cloudy,220,2013-09-08 22:36:00
2:56 PM,57.2,44.6,63,29.71,10.0,SSW,8.1,-,N/A,,Clear,200,2013-09-08 22:56:00
3:16 PM,60.8,44.6,55,29.71,10.0,SSW,12.7,20.7,N/A,,Scattered Clouds,210,2013-09-08 23:16:00
3:36 PM,60.8,42.8,52,29.71,10.0,SW,11.5,17.3,N/A,,Partly Cloudy,230,2013-09-08 23:36:00
3:56 PM,60.8,44.6,55,29.72,10.0,SSW,5.8,-,N/A,,Scattered Clouds,210,2013-09-08 23:56:00
4:16 PM,62.6,42.8,48,29.72,10.0,South,8.1,19.6,N/A,,Mostly Cloudy,190,2013-09-09 00:16:00
4:36 PM,62.6,39.2,42,29.72,10.0,South,12.7,20.7,N/A,,Scattered Clouds,190,2013-09-09 00:36:00
4:56 PM,62.6,41.0,45,29.73,10.0,SSW,8.1,18.4,N/A,,Clear,210,2013-09-09 00:56:00
5:16 PM,62.6,39.2,42,29.73,10.0,SSW,10.4,17.3,N/A,,Clear,200,2013-09-09 01:16:00
5:36 PM,60.8,42.8,52,29.74,10.0,WSW,11.5,-,N/A,,Clear,240,2013-09-09 01:36:00
5:56 PM,59.0,42.8,55,29.75,10.0,WSW,9.2,-,N/A,,Clear,250,2013-09-09 01:56:00
6:16 PM,60.8,42.8,52,29.76,10.0,WSW,5.8,-,N/A,,Partly Cloudy,240,2013-09-09 02:16:00
6:36 PM,60.8,42.8,52,29.77,10.0,Calm,Calm,-,N/A,,Mostly Cloudy,0,2013-09-09 02:36:00
6:56 PM,59.0,41.0,51,29.76,10.0,SSW,6.9,-,N/A,,Scattered Clouds,200,2013-09-09 02:56:00
7:16 PM,59.0,41.0,51,29.77,10.0,WSW,4.6,-,N/A,,Clear,240,2013-09-09 03:16:00
7:36 PM,57.2,39.2,51,29.77,10.0,WSW,3.5,-,N/A,,Clear,240,2013-09-09 03:36:00
7:56 PM,55.4,42.8,63,29.78,10.0,WNW,4.6,-,N/A,,Clear,290,2013-09-09 03:56:00
8:16 PM,53.6,42.8,67,29.79,10.0,Calm,Calm,-,N/A,,Clear,0,2013-09-09 04:16:00
8:36 PM,51.8,42.8,71,29.79,10.0,Calm,Calm,-,N/A,,Mostly Cloudy,0,2013-09-09 04:36:00
8:56 PM,51.8,44.6,76,29.81,10.0,ENE,8.1,-,N/A,,Overcast,70,2013-09-09 04:56:00
9:16 PM,53.6,42.8,67,29.80,10.0,Calm,Calm,-,N/A,,Overcast,0,2013-09-09 05:16:00
9:36 PM,51.8,42.8,71,29.81,10.0,Calm,Calm,-,N/A,,Overcast,0,2013-09-09 05:36:00
9:56 PM,50.0,42.8,76,29.81,10.0,Calm,Calm,-,N/A,,Overcast,0,2013-09-09 05:56:00
10:16 PM,50.0,42.8,76,29.81,10.0,East,3.5,-,N/A,,Overcast,100,2013-09-09 06:16:00
10:36 PM,50.0,44.6,82,29.81,10.0,East,3.5,-,N/A,,Overcast,80,2013-09-09 06:36:00
10:56 PM,48.2,44.6,87,29.81,10.0,Calm,Calm,-,N/A,,Overcast,0,2013-09-09 06:56:00
11:16 PM,50.0,44.6,82,29.81,10.0,Calm,Calm,-,N/A,,Overcast,0,2013-09-09 07:16:00
11:36 PM,48.2,44.6,87,29.81,10.0,Calm,Calm,-,N/A,,Overcast,0,2013-09-09 07:36:00
11:56 PM,48.2,44.6,87,29.81,10.0,Calm,Calm,-,N/A,,Overcast,0,2013-09-09 07:56:00